Simultaneous Nadir Overpasses (SNOs) Predictions

Prediction of SNOs between METOP-C and LANDSAT-8 Satellite Orbit:

Table of predicted SNOs for the next 14.0 days since TLE Epoch: 5/29/2021
Index Date (METOP-C) Time (METOP-C) Lat,Lon (METOP-C) SZA (METOP-C ) Date (LANDSAT-8) Time (LANDSAT-8) Lat,Lon (LANDSAT-8) SZA (LANDSAT-8 ) Distance(km) Time Diff (sec)
1 05/30/2021 07:12:07 -81.15, -67.76 118.41 05/30/2021 07:12:35 -81.14, -67.83 118.41 1.25 28
2 05/30/2021 08:02:45 81.18, 100.45 61.70 05/30/2021 08:02:00 81.17, 100.29 61.66 2.64 45
3 06/02/2021 02:46:28 -81.16, -1.05 118.77 06/02/2021 02:46:51 -81.16, -1.16 118.77 1.89 23
4 06/02/2021 03:37:07 81.17, 166.71 61.28 06/02/2021 03:36:17 81.16, 166.57 61.24 2.46 50
5 06/04/2021 22:20:49 -81.15, 65.25 119.13 06/04/2021 22:21:07 -81.15, 65.10 119.14 2.67 18
6 06/04/2021 23:11:27 81.18,-126.67 60.97 06/04/2021 23:10:32 81.17,-126.82 60.92 2.52 55
7 06/07/2021 17:55:11 -81.15, 131.54 119.44 06/07/2021 17:55:23 -81.16, 131.70 119.42 2.92 12
8 06/07/2021 18:45:48 81.18, -60.07 60.69 06/07/2021 18:44:48 81.18, -60.24 60.65 2.93 60
9 06/10/2021 13:29:33 -81.14,-162.20 119.71 06/10/2021 13:29:40 -81.14,-162.10 119.69 1.70 7



Historial Predications of SNOs between METOP-C and LANDSAT-8
